パンスターズ彗星

347P/PanSTARRS (2023)

English version
Home page
Updated on October 24, 2023

---------------------------------------------------------------------

・ プロフィール

・ 写真集

・ 軌道要素

Epoch 2023 Sept. 13.0 TT = JDT 2460200.5
T 2023 July 20.04088 TT                                 Rudenko
q   2.2125089            (2000.0)            P               Q
n   0.14387581     Peri.   98.43587     +0.97946504     +0.01276602
a   3.6069839      Node   261.00677     -0.08610595     +0.92888515
e   0.3866042      Incl.   11.75422     +0.18230193     +0.37014783
P   6.85
>From 187 observations 2002 July 12-2023 Aug. 24, mean residual 0".6.

・ 光度変化

        m1 = 9.0 + 5 logΔ + 25.0 log r(t - 100)

---------------------------------------------------------------------

軌道要素はM.P.E.C. 2023-Q150に掲載されたものです。
光度グラフはComet for Windowsで作成したものです。

---------------------------------------------------------------------

Copyright(C) Seiichi Yoshida (comet@aerith.net). All rights reserved.